User: anonymous   Login
Location: Unspecified
(0.0000°N, 0.0000°E)
Time: 20:20:19
(UTC+00:00)
Language:

STARLINK-5828 - Orbit

View from above orbital plane
View from above orbital plane
View from above satellite
View from above satellite

Ground track
Ground track

The orbit is defined by the following mean orbital elements,

1 57070U          26145.34975691 +.00000000 +00000-0 +13262-4 0 00002
2 57070  43.0016  23.2707 0001032 231.7008 128.3751 15.27576108    02
Epoch (UTC): 25 May 2026 08:23:38
Eccentricity: 0.0001032
inclination: 43.0016°
perigee height: 482 km
apogee height: 484 km
right ascension of ascending node: 23.2707°
argument of perigee: 231.7008°
revolutions per day: 15.27576108
mean anomaly at epoch: 128.3751°

The dashed part of the orbit path shows where the satellite is in the earth's shadow,  

DLR